Time,TemperatureF,DewpointF,PressureIn,WindDirection,WindDirectionDegrees,WindSpeedMPH,WindSpeedGustMPH,Humidity,HourlyPrecipIn,Conditions,Clouds,dailyrainin,SolarRadiationWatts/m^2,SoftwareType,DateUTC
2013-07-28 00:03:00,52.7,50.4,29.94,WSW,239,2.0,3.0,92,0.00,,,0.00,0,Wunderground v.1.15,2013-07-28 05:03:00,
2013-07-28 00:08:00,52.7,50.4,29.94,WSW,241,2.0,5.0,92,0.00,,,0.00,0,Wunderground v.1.15,2013-07-28 05:08:00,
2013-07-28 00:14:00,52.7,50.7,29.94,WSW,242,1.0,3.0,93,0.00,,,0.00,0,Wunderground v.1.15,2013-07-28 05:14:00,
2013-07-28 00:19:00,52.7,50.7,29.93,SW,235,1.0,6.0,93,0.00,,,0.00,0,Wunderground v.1.15,2013-07-28 05:19:00,
2013-07-28 00:24:00,52.7,50.7,29.93,WSW,240,1.0,6.0,93,0.00,,,0.00,0,Wunderground v.1.15,2013-07-28 05:24:00,
2013-07-28 00:29:00,52.7,50.7,29.93,SW,234,2.0,6.0,93,0.00,,,0.00,0,Wunderground v.1.15,2013-07-28 05:29:00,
2013-07-28 00:35:00,52.7,50.7,29.93,WSW,246,3.0,6.0,93,0.00,,,0.00,0,Wunderground v.1.15,2013-07-28 05:35:00,
2013-07-28 00:40:00,52.6,50.6,29.93,WSW,253,3.0,3.0,93,0.00,,,0.00,0,Wunderground v.1.15,2013-07-28 05:40:00,
2013-07-28 00:46:00,52.6,50.6,29.93,WSW,250,1.0,3.0,93,0.00,,,0.00,0,Wunderground v.1.15,2013-07-28 05:46:00,
2013-07-28 00:51:00,52.5,50.5,29.93,WSW,250,0.0,1.0,93,0.00,,,0.00,0,Wunderground v.1.15,2013-07-28 05:51:00,
2013-07-28 00:57:00,52.4,50.4,29.93,WSW,252,0.0,3.0,93,0.00,,,0.00,0,Wunderground v.1.15,2013-07-28 05:57:00,
2013-07-28 01:02:00,52.4,50.4,29.93,WSW,242,0.0,1.0,93,0.00,,,0.00,0,Wunderground v.1.15,2013-07-28 06:02:00,
2013-07-28 01:08:00,52.3,50.3,29.93,WSW,251,0.0,3.0,93,0.00,,,0.00,0,Wunderground v.1.15,2013-07-28 06:08:00,
2013-07-28 01:13:00,52.3,50.6,29.93,WSW,251,1.0,1.0,94,0.00,,,0.00,0,Wunderground v.1.15,2013-07-28 06:13:00,
2013-07-28 01:19:00,52.2,50.5,29.93,WSW,250,1.0,3.0,94,0.00,,,0.00,0,Wunderground v.1.15,2013-07-28 06:19:00,
2013-07-28 01:24:00,52.1,50.4,29.93,WSW,250,1.0,1.0,94,0.00,,,0.00,0,Wunderground v.1.15,2013-07-28 06:24:00,
2013-07-28 01:30:00,52.1,50.4,29.93,WSW,252,0.0,0.0,94,0.00,,,0.00,0,Wunderground v.1.15,2013-07-28 06:30:00,
2013-07-28 01:36:00,52.0,50.3,29.93,WSW,251,0.0,1.0,94,0.00,,,0.00,0,Wunderground v.1.15,2013-07-28 06:36:00,
2013-07-28 01:42:00,51.9,50.2,29.93,WSW,251,2.0,2.0,94,0.00,,,0.00,0,Wunderground v.1.15,2013-07-28 06:42:00,
2013-07-28 01:48:00,51.8,50.1,29.93,WSW,254,1.0,2.0,94,0.00,,,0.00,0,Wunderground v.1.15,2013-07-28 06:48:00,
2013-07-28 01:53:00,51.7,50.0,29.93,West,275,0.0,1.0,94,0.00,,,0.00,0,Wunderground v.1.15,2013-07-28 06:53:00,
2013-07-28 01:59:00,51.7,50.0,29.93,West,275,0.0,1.0,94,0.00,,,0.00,0,Wunderground v.1.15,2013-07-28 06:59:00,
2013-07-28 02:04:00,51.6,49.9,29.93,West,272,0.0,5.0,94,0.00,,,0.00,0,Wunderground v.1.15,2013-07-28 07:04:00,
2013-07-28 02:09:00,51.6,49.9,29.93,West,267,0.0,5.0,94,0.00,,,0.00,0,Wunderground v.1.15,2013-07-28 07:09:00,
2013-07-28 02:14:00,51.6,49.9,29.93,West,263,1.0,5.0,94,0.00,,,0.00,0,Wunderground v.1.15,2013-07-28 07:14:00,
2013-07-28 02:19:00,51.6,49.9,29.93,West,263,0.0,5.0,94,0.00,,,0.00,0,Wunderground v.1.15,2013-07-28 07:19:00,
2013-07-28 02:24:00,51.5,49.8,29.93,West,263,0.0,4.0,94,0.00,,,0.00,0,Wunderground v.1.15,2013-07-28 07:24:00,
2013-07-28 02:29:00,51.6,49.9,29.93,West,263,0.0,4.0,94,0.00,,,0.00,0,Wunderground v.1.15,2013-07-28 07:29:00,
2013-07-28 02:34:00,51.6,49.9,29.93,West,263,0.0,1.0,94,0.00,,,0.00,0,Wunderground v.1.15,2013-07-28 07:34:00,
2013-07-28 02:39:00,51.6,49.9,29.93,West,264,0.0,3.0,94,0.00,,,0.00,0,Wunderground v.1.15,2013-07-28 07:39:00,
2013-07-28 02:44:00,51.6,50.2,29.93,West,264,0.0,2.0,95,0.00,,,0.00,0,Wunderground v.1.15,2013-07-28 07:44:00,
2013-07-28 02:49:00,51.6,50.2,29.93,West,265,0.0,4.0,95,0.00,,,0.00,0,Wunderground v.1.15,2013-07-28 07:49:00,
2013-07-28 02:54:00,51.6,50.2,29.93,West,267,1.0,4.0,95,0.00,,,0.00,0,Wunderground v.1.15,2013-07-28 07:54:00,
2013-07-28 02:59:00,51.6,50.2,29.93,West,267,2.0,4.0,95,0.00,,,0.00,0,Wunderground v.1.15,2013-07-28 07:59:00,
2013-07-28 03:04:00,51.5,50.1,29.93,West,267,0.0,3.0,95,0.00,,,0.00,0,Wunderground v.1.15,2013-07-28 08:04:00,
2013-07-28 03:09:00,51.6,50.2,29.93,West,267,1.0,3.0,95,0.00,,,0.00,0,Wunderground v.1.15,2013-07-28 08:09:00,
2013-07-28 03:14:00,51.6,50.2,29.93,WSW,246,0.0,6.0,95,0.00,,,0.00,0,Wunderground v.1.15,2013-07-28 08:14:00,
2013-07-28 03:19:00,51.6,50.2,29.93,WSW,249,0.0,6.0,95,0.00,,,0.00,0,Wunderground v.1.15,2013-07-28 08:19:00,
2013-07-28 03:24:00,51.6,50.2,29.93,West,273,0.0,6.0,95,0.00,,,0.00,0,Wunderground v.1.15,2013-07-28 08:24:00,
2013-07-28 03:29:00,51.6,50.2,29.93,West,259,1.0,7.0,95,0.00,,,0.00,0,Wunderground v.1.15,2013-07-28 08:29:00,
2013-07-28 03:34:00,51.6,50.2,29.93,WSW,252,0.0,6.0,95,0.00,,,0.01,0,Wunderground v.1.15,2013-07-28 08:34:00,
2013-07-28 03:39:00,51.7,50.3,29.92,West,265,0.0,6.0,95,0.00,,,0.01,0,Wunderground v.1.15,2013-07-28 08:39:00,
2013-07-28 03:44:00,51.7,50.3,29.93,West,262,0.0,5.0,95,0.00,,,0.01,0,Wunderground v.1.15,2013-07-28 08:44:00,
2013-07-28 03:49:00,51.7,50.3,29.92,West,264,3.0,6.0,95,0.00,,,0.01,0,Wunderground v.1.15,2013-07-28 08:49:00,
2013-07-28 03:54:00,51.7,50.3,29.92,West,259,0.0,5.0,95,0.00,,,0.01,0,Wunderground v.1.15,2013-07-28 08:54:00,
2013-07-28 03:59:00,51.7,50.3,29.93,West,259,0.0,5.0,95,0.00,,,0.01,0,Wunderground v.1.15,2013-07-28 08:59:00,
2013-07-28 04:04:00,51.7,50.3,29.93,West,259,0.0,3.0,95,0.00,,,0.01,0,Wunderground v.1.15,2013-07-28 09:04:00,
2013-07-28 04:09:00,51.7,50.3,29.92,West,260,0.0,3.0,95,0.00,,,0.01,0,Wunderground v.1.15,2013-07-28 09:09:00,
2013-07-28 04:14:00,51.7,50.3,29.92,West,260,3.0,4.0,95,0.00,,,0.01,0,Wunderground v.1.15,2013-07-28 09:14:00,
2013-07-28 04:19:00,51.6,50.2,29.92,WSW,246,2.0,7.0,95,0.00,,,0.01,0,Wunderground v.1.15,2013-07-28 09:19:00,
2013-07-28 04:24:00,51.5,50.1,29.93,WSW,246,2.0,6.0,95,0.00,,,0.01,0,Wunderground v.1.15,2013-07-28 09:24:00,
2013-07-28 04:29:00,51.5,50.1,29.93,WSW,246,0.0,6.0,95,0.00,,,0.01,0,Wunderground v.1.15,2013-07-28 09:29:00,
2013-07-28 04:34:00,51.5,50.1,29.93,WSW,244,3.0,3.0,95,0.00,,,0.01,0,Wunderground v.1.15,2013-07-28 09:34:00,
2013-07-28 04:39:00,51.5,50.1,29.93,WSW,244,0.0,3.0,95,0.00,,,0.01,0,Wunderground v.1.15,2013-07-28 09:39:00,
2013-07-28 04:44:00,51.5,50.1,29.93,WSW,244,0.0,3.0,95,0.00,,,0.01,0,Wunderground v.1.15,2013-07-28 09:44:00,
2013-07-28 04:49:00,51.5,50.1,29.93,WSW,244,0.0,3.0,95,0.00,,,0.01,0,Wunderground v.1.15,2013-07-28 09:49:00,
2013-07-28 04:54:00,51.5,50.1,29.93,WSW,244,0.0,3.0,95,0.00,,,0.01,0,Wunderground v.1.15,2013-07-28 09:54:00,
2013-07-28 04:59:00,51.4,50.0,29.94,WSW,244,0.0,3.0,95,0.00,,,0.01,0,Wunderground v.1.15,2013-07-28 09:59:00,
2013-07-28 05:05:00,51.5,50.4,29.94,WSW,244,0.0,1.0,96,0.00,,,0.01,0,Wunderground v.1.15,2013-07-28 10:05:00,
2013-07-28 05:10:00,51.4,50.0,29.94,WSW,244,0.0,1.0,95,0.00,,,0.01,0,Wunderground v.1.15,2013-07-28 10:10:00,
2013-07-28 05:15:00,51.5,50.1,29.94,WSW,244,0.0,2.0,95,0.00,,,0.01,0,Wunderground v.1.15,2013-07-28 10:15:00,
2013-07-28 05:20:00,51.5,50.4,29.94,WSW,246,0.0,0.0,96,0.00,,,0.01,0,Wunderground v.1.15,2013-07-28 10:20:00,
2013-07-28 05:25:00,51.5,50.4,29.94,WSW,246,3.0,3.0,96,0.00,,,0.01,0,Wunderground v.1.15,2013-07-28 10:25:00,
2013-07-28 05:30:00,51.5,50.1,29.94,WSW,248,0.0,1.0,95,0.00,,,0.01,0,Wunderground v.1.15,2013-07-28 10:30:00,
2013-07-28 05:35:00,51.5,50.4,29.94,WSW,248,0.0,3.0,96,0.00,,,0.01,0,Wunderground v.1.15,2013-07-28 10:35:00,
2013-07-28 05:40:00,51.5,50.4,29.94,WSW,249,0.0,2.0,96,0.00,,,0.01,0,Wunderground v.1.15,2013-07-28 10:40:00,
2013-07-28 05:45:00,51.5,50.4,29.95,WSW,249,0.0,4.0,96,0.00,,,0.01,0,Wunderground v.1.15,2013-07-28 10:45:00,
2013-07-28 05:50:00,51.5,50.4,29.94,WSW,250,0.0,0.0,96,0.00,,,0.01,0,Wunderground v.1.15,2013-07-28 10:50:00,
2013-07-28 05:55:00,51.6,50.5,29.95,WSW,250,0.0,3.0,96,0.00,,,0.01,5,Wunderground v.1.15,2013-07-28 10:55:00,
2013-07-28 06:00:00,51.6,50.5,29.95,WSW,250,4.0,4.0,96,0.00,,,0.01,9,Wunderground v.1.15,2013-07-28 11:00:00,
2013-07-28 06:05:00,51.7,50.6,29.95,WSW,250,0.0,4.0,96,0.00,,,0.01,9,Wunderground v.1.15,2013-07-28 11:05:00,
2013-07-28 06:10:00,51.8,50.7,29.95,WSW,250,0.0,1.0,96,0.00,,,0.01,12,Wunderground v.1.15,2013-07-28 11:10:00,
2013-07-28 06:15:00,51.8,50.7,29.95,WSW,250,2.0,4.0,96,0.00,,,0.01,18,Wunderground v.1.15,2013-07-28 11:15:00,
2013-07-28 06:20:00,51.7,50.6,29.95,WSW,250,0.0,1.0,96,0.00,,,0.01,23,Wunderground v.1.15,2013-07-28 11:20:00,
2013-07-28 06:26:00,51.8,50.7,29.95,WSW,250,0.0,1.0,96,0.00,,,0.01,35,Wunderground v.1.15,2013-07-28 11:26:00,
2013-07-28 06:31:00,51.8,50.7,29.95,WNW,284,0.0,0.0,96,0.00,,,0.01,42,Wunderground v.1.15,2013-07-28 11:31:00,
2013-07-28 06:36:00,51.8,50.7,29.95,WNW,286,0.0,2.0,96,0.00,,,0.01,37,Wunderground v.1.15,2013-07-28 11:36:00,
2013-07-28 06:41:00,51.9,50.8,29.95,WNW,286,4.0,5.0,96,0.00,,,0.01,39,Wunderground v.1.15,2013-07-28 11:41:00,
2013-07-28 06:46:00,51.8,50.7,29.95,WNW,288,1.0,5.0,96,0.00,,,0.01,42,Wunderground v.1.15,2013-07-28 11:46:00,
2013-07-28 06:51:00,51.8,50.7,29.95,ESE,117,0.0,4.0,96,0.00,,,0.01,40,Wunderground v.1.15,2013-07-28 11:51:00,
2013-07-28 06:56:00,51.9,50.8,29.95,ESE,117,0.0,4.0,96,0.00,,,0.01,53,Wunderground v.1.15,2013-07-28 11:56:00,
2013-07-28 07:01:00,51.8,50.4,29.95,WSW,242,3.0,3.0,95,0.00,,,0.01,51,Wunderground v.1.15,2013-07-28 12:01:00,
2013-07-28 07:06:00,51.8,50.4,29.96,WSW,242,0.0,3.0,95,0.00,,,0.01,54,Wunderground v.1.15,2013-07-28 12:06:00,
2013-07-28 07:11:00,51.8,50.7,29.96,WSW,254,0.0,4.0,96,0.00,,,0.01,84,Wunderground v.1.15,2013-07-28 12:11:00,
2013-07-28 07:16:00,52.0,50.9,29.96,WSW,251,0.0,5.0,96,0.00,,,0.01,91,Wunderground v.1.15,2013-07-28 12:16:00,
2013-07-28 07:21:00,52.2,51.1,29.96,West,271,0.0,4.0,96,0.00,,,0.01,98,Wunderground v.1.15,2013-07-28 12:21:00,
2013-07-28 07:26:00,52.4,51.3,29.97,WNW,290,0.0,6.0,96,0.00,,,0.01,146,Wunderground v.1.15,2013-07-28 12:26:00,
2013-07-28 07:31:00,52.6,51.5,29.97,WNW,286,0.0,2.0,96,0.00,,,0.01,149,Wunderground v.1.15,2013-07-28 12:31:00,
2013-07-28 07:36:00,52.8,51.4,29.97,NW,306,6.0,12.0,95,0.00,,,0.01,156,Wunderground v.1.15,2013-07-28 12:36:00,
2013-07-28 07:41:00,53.0,51.3,29.97,WNW,296,2.0,4.0,94,0.00,,,0.01,156,Wunderground v.1.15,2013-07-28 12:41:00,
2013-07-28 07:46:00,53.2,51.5,29.97,WNW,284,4.0,8.0,94,0.00,,,0.01,90,Wunderground v.1.15,2013-07-28 12:46:00,
2013-07-28 07:51:00,53.3,51.3,29.97,NW,322,0.0,7.0,93,0.00,,,0.01,91,Wunderground v.1.15,2013-07-28 12:51:00,
2013-07-28 07:56:00,53.4,51.4,29.97,West,270,0.0,11.0,93,0.00,,,0.01,132,Wunderground v.1.15,2013-07-28 12:56:00,
2013-07-28 08:01:00,53.5,51.2,29.97,WSW,256,0.0,5.0,92,0.00,,,0.01,272,Wunderground v.1.15,2013-07-28 13:01:00,
2013-07-28 08:06:00,53.9,51.9,29.97,SSW,211,8.0,11.0,93,0.00,,,0.01,192,Wunderground v.1.15,2013-07-28 13:06:00,
2013-07-28 08:11:00,54.1,51.8,29.97,West,261,4.0,13.0,92,0.00,,,0.01,127,Wunderground v.1.15,2013-07-28 13:11:00,
2013-07-28 08:17:00,54.0,51.4,29.98,West,259,2.0,13.0,91,0.00,,,0.01,253,Wunderground v.1.15,2013-07-28 13:17:00,
2013-07-28 08:22:00,54.1,51.5,29.98,WNW,288,1.0,11.0,91,0.00,,,0.01,72,Wunderground v.1.15,2013-07-28 13:22:00,
2013-07-28 08:27:00,54.0,51.1,29.98,West,262,0.0,11.0,90,0.00,,,0.01,141,Wunderground v.1.15,2013-07-28 13:27:00,
2013-07-28 08:32:00,53.9,50.7,29.98,WSW,252,0.0,7.0,89,0.00,,,0.01,190,Wunderground v.1.15,2013-07-28 13:32:00,
2013-07-28 08:37:00,53.9,50.4,29.98,West,276,1.0,14.0,88,0.00,,,0.01,214,Wunderground v.1.15,2013-07-28 13:37:00,
2013-07-28 08:42:00,53.8,50.3,29.98,NW,311,7.0,12.0,88,0.00,,,0.01,162,Wunderground v.1.15,2013-07-28 13:42:00,
2013-07-28 08:47:00,53.7,50.5,29.99,WSW,244,8.0,12.0,89,0.00,,,0.01,116,Wunderground v.1.15,2013-07-28 13:47:00,
2013-07-28 08:52:00,53.7,50.5,29.98,West,271,0.0,5.0,89,0.00,,,0.01,186,Wunderground v.1.15,2013-07-28 13:52:00,
2013-07-28 08:57:00,53.7,50.2,29.98,SW,236,6.0,10.0,88,0.00,,,0.01,246,Wunderground v.1.15,2013-07-28 13:57:00,
2013-07-28 09:02:00,54.0,50.5,29.98,WSW,250,1.0,11.0,88,0.00,,,0.01,434,Wunderground v.1.15,2013-07-28 14:02:00,
2013-07-28 09:07:00,54.3,50.2,29.98,West,261,4.0,13.0,86,0.00,,,0.01,304,Wunderground v.1.15,2013-07-28 14:07:00,
2013-07-28 09:12:00,54.2,49.8,29.98,SW,234,10.0,14.0,85,0.00,,,0.01,234,Wunderground v.1.15,2013-07-28 14:12:00,
2013-07-28 09:17:00,54.6,50.5,29.98,WSW,254,4.0,14.0,86,0.00,,,0.01,490,Wunderground v.1.15,2013-07-28 14:17:00,
2013-07-28 09:22:00,54.9,49.5,29.98,WNW,288,9.0,11.0,82,0.00,,,0.01,448,Wunderground v.1.15,2013-07-28 14:22:00,
2013-07-28 09:27:00,54.9,49.5,29.98,WNW,289,9.0,16.0,82,0.00,,,0.01,283,Wunderground v.1.15,2013-07-28 14:27:00,
2013-07-28 09:32:00,54.5,48.8,29.98,NW,304,2.0,12.0,81,0.00,,,0.01,381,Wunderground v.1.15,2013-07-28 14:32:00,
2013-07-28 09:37:00,54.6,49.2,29.98,North,355,2.0,14.0,82,0.00,,,0.01,703,Wunderground v.1.15,2013-07-28 14:37:00,
2013-07-28 09:42:00,55.1,50.0,29.98,WSW,254,2.0,11.0,83,0.00,,,0.01,376,Wunderground v.1.15,2013-07-28 14:42:00,
2013-07-28 09:47:00,55.3,49.9,29.98,South,178,7.0,12.0,82,0.00,,,0.01,306,Wunderground v.1.15,2013-07-28 14:47:00,
2013-07-28 09:52:00,55.3,49.2,29.98,SW,227,3.0,15.0,80,0.00,,,0.01,868,Wunderground v.1.15,2013-07-28 14:52:00,
2013-07-28 09:57:00,55.6,49.9,29.97,WSW,238,12.0,15.0,81,0.00,,,0.01,805,Wunderground v.1.15,2013-07-28 14:57:00,
2013-07-28 10:02:00,56.1,50.3,29.97,WSW,246,7.0,11.0,81,0.00,,,0.01,765,Wunderground v.1.15,2013-07-28 15:02:00,
2013-07-28 10:07:00,56.4,50.3,29.98,NW,309,2.0,13.0,80,0.00,,,0.01,260,Wunderground v.1.15,2013-07-28 15:07:00,
2013-07-28 10:12:00,56.6,49.5,29.98,West,277,5.0,12.0,77,0.00,,,0.01,352,Wunderground v.1.15,2013-07-28 15:12:00,
2013-07-28 10:17:00,56.7,50.3,29.99,SW,230,6.0,13.0,79,0.00,,,0.01,415,Wunderground v.1.15,2013-07-28 15:17:00,
2013-07-28 10:23:00,56.9,50.1,29.99,West,263,8.0,15.0,78,0.00,,,0.01,360,Wunderground v.1.15,2013-07-28 15:23:00,
2013-07-28 10:28:00,56.7,49.9,29.99,NW,313,2.0,16.0,78,0.00,,,0.01,297,Wunderground v.1.15,2013-07-28 15:28:00,
2013-07-28 10:33:00,56.5,49.0,29.99,WNW,298,4.0,14.0,76,0.00,,,0.01,352,Wunderground v.1.15,2013-07-28 15:33:00,
2013-07-28 10:38:00,56.2,49.4,29.99,West,267,4.0,18.0,78,0.00,,,0.01,330,Wunderground v.1.15,2013-07-28 15:38:00,
2013-07-28 10:43:00,56.1,49.7,29.99,North,5,0.0,15.0,79,0.00,,,0.01,195,Wunderground v.1.15,2013-07-28 15:43:00,
2013-07-28 10:48:00,55.9,49.5,30.00,WNW,287,1.0,15.0,79,0.00,,,0.01,153,Wunderground v.1.15,2013-07-28 15:48:00,
2013-07-28 10:53:00,55.5,49.1,30.00,WSW,251,4.0,12.0,79,0.00,,,0.01,269,Wunderground v.1.15,2013-07-28 15:53:00,
2013-07-28 10:58:00,55.3,48.9,30.00,WNW,297,7.0,12.0,79,0.00,,,0.01,214,Wunderground v.1.15,2013-07-28 15:58:00,
2013-07-28 11:03:00,55.3,49.2,30.00,WSW,245,0.0,7.0,80,0.00,,,0.01,325,Wunderground v.1.15,2013-07-28 16:03:00,
2013-07-28 11:08:00,55.4,49.3,30.00,WNW,289,0.0,9.0,80,0.00,,,0.01,316,Wunderground v.1.15,2013-07-28 16:08:00,
2013-07-28 11:13:00,55.5,49.4,30.00,NW,306,7.0,8.0,80,0.00,,,0.01,381,Wunderground v.1.15,2013-07-28 16:13:00,
2013-07-28 11:18:00,55.8,50.4,30.00,West,265,3.0,8.0,82,0.00,,,0.01,385,Wunderground v.1.15,2013-07-28 16:18:00,
2013-07-28 11:23:00,56.1,50.0,30.00,West,275,1.0,11.0,80,0.00,,,0.01,227,Wunderground v.1.15,2013-07-28 16:23:00,
2013-07-28 11:28:00,56.2,50.1,30.01,NW,304,6.0,11.0,80,0.00,,,0.01,230,Wunderground v.1.15,2013-07-28 16:28:00,
2013-07-28 11:33:00,56.1,50.3,30.01,WNW,290,7.0,12.0,81,0.00,,,0.01,501,Wunderground v.1.15,2013-07-28 16:33:00,
2013-07-28 11:38:00,56.5,50.7,30.00,WSW,244,4.0,12.0,81,0.00,,,0.01,555,Wunderground v.1.15,2013-07-28 16:38:00,
2013-07-28 11:43:00,57.2,51.4,30.01,WSW,250,8.0,11.0,81,0.00,,,0.01,1013,Wunderground v.1.15,2013-07-28 16:43:00,
2013-07-28 11:48:00,57.8,51.3,30.00,SW,224,4.0,12.0,79,0.00,,,0.01,519,Wunderground v.1.15,2013-07-28 16:48:00,
2013-07-28 11:53:00,58.0,51.5,30.00,WSW,238,8.0,13.0,79,0.00,,,0.01,515,Wunderground v.1.15,2013-07-28 16:53:00,
2013-07-28 11:58:00,58.2,52.1,30.00,WSW,244,7.0,13.0,80,0.00,,,0.01,629,Wunderground v.1.15,2013-07-28 16:58:00,
2013-07-28 12:03:00,58.1,52.0,30.00,WNW,282,0.0,7.0,80,0.00,,,0.01,438,Wunderground v.1.15,2013-07-28 17:03:00,
2013-07-28 12:08:00,58.0,51.5,30.00,WSW,252,2.0,11.0,79,0.00,,,0.01,360,Wunderground v.1.15,2013-07-28 17:08:00,
2013-07-28 12:13:00,58.0,51.2,30.01,West,262,4.0,10.0,78,0.00,,,0.01,322,Wunderground v.1.15,2013-07-28 17:13:00,
2013-07-28 12:18:00,57.6,51.1,30.01,SSW,205,7.0,13.0,79,0.00,,,0.01,190,Wunderground v.1.15,2013-07-28 17:18:00,
2013-07-28 12:23:00,57.2,51.1,30.01,SW,229,5.0,10.0,80,0.00,,,0.01,183,Wunderground v.1.15,2013-07-28 17:23:00,
2013-07-28 12:28:00,57.3,51.5,30.01,West,271,0.0,10.0,81,0.00,,,0.01,322,Wunderground v.1.15,2013-07-28 17:28:00,
2013-07-28 12:33:00,57.6,51.8,30.01,WSW,258,3.0,8.0,81,0.00,,,0.01,257,Wunderground v.1.15,2013-07-28 17:33:00,
2013-07-28 12:38:00,58.0,51.9,30.00,SW,229,3.0,12.0,80,0.00,,,0.01,230,Wunderground v.1.15,2013-07-28 17:38:00,
2013-07-28 12:43:00,58.1,52.3,30.00,WNW,290,8.0,8.0,81,0.00,,,0.01,200,Wunderground v.1.15,2013-07-28 17:43:00,
2013-07-28 12:48:00,58.1,52.3,30.00,West,273,7.0,8.0,81,0.00,,,0.01,179,Wunderground v.1.15,2013-07-28 17:48:00,
2013-07-28 12:53:00,58.2,52.1,30.01,West,275,5.0,12.0,80,0.00,,,0.01,200,Wunderground v.1.15,2013-07-28 17:53:00,
2013-07-28 12:58:00,58.2,51.7,30.01,WNW,285,0.0,13.0,79,0.00,,,0.01,294,Wunderground v.1.15,2013-07-28 17:58:00,
2013-07-28 13:03:00,58.4,51.9,30.00,NW,307,1.0,12.0,79,0.00,,,0.01,485,Wunderground v.1.15,2013-07-28 18:03:00,
2013-07-28 13:08:00,59.2,53.0,30.01,SW,225,3.0,12.0,80,0.00,,,0.01,905,Wunderground v.1.15,2013-07-28 18:08:00,
2013-07-28 13:13:00,60.0,53.5,30.01,SW,234,3.0,10.0,79,0.00,,,0.01,487,Wunderground v.1.15,2013-07-28 18:13:00,
2013-07-28 13:19:00,60.2,53.3,30.01,SW,234,0.0,12.0,78,0.00,,,0.01,338,Wunderground v.1.15,2013-07-28 18:19:00,
2013-07-28 13:24:00,60.3,53.8,30.01,SW,217,9.0,9.0,79,0.00,,,0.01,462,Wunderground v.1.15,2013-07-28 18:24:00,
2013-07-28 13:29:00,60.5,53.6,30.01,West,267,3.0,9.0,78,0.00,,,0.01,545,Wunderground v.1.15,2013-07-28 18:29:00,
2013-07-28 13:34:00,60.8,53.9,30.01,WSW,240,6.0,11.0,78,0.00,,,0.01,487,Wunderground v.1.15,2013-07-28 18:34:00,
2013-07-28 13:39:00,61.4,53.8,30.00,SW,233,4.0,11.0,76,0.00,,,0.01,533,Wunderground v.1.15,2013-07-28 18:39:00,
2013-07-28 13:44:00,62.2,54.9,30.00,SW,215,5.0,11.0,77,0.00,,,0.01,867,Wunderground v.1.15,2013-07-28 18:44:00,
2013-07-28 13:49:00,62.2,53.8,30.00,WSW,256,12.0,16.0,74,0.00,,,0.01,867,Wunderground v.1.15,2013-07-28 18:49:00,
2013-07-28 13:54:00,62.7,54.7,30.00,WSW,246,6.0,13.0,75,0.00,,,0.01,1035,Wunderground v.1.15,2013-07-28 18:54:00,
2013-07-28 13:59:00,63.1,54.7,30.00,SW,216,8.0,14.0,74,0.00,,,0.01,455,Wunderground v.1.15,2013-07-28 18:59:00,
2013-07-28 14:04:00,62.8,53.6,30.00,SSW,213,11.0,13.0,72,0.00,,,0.01,422,Wunderground v.1.15,2013-07-28 19:04:00,
2013-07-28 14:09:00,62.6,54.2,30.00,SW,220,7.0,14.0,74,0.00,,,0.01,494,Wunderground v.1.15,2013-07-28 19:09:00,
2013-07-28 14:14:00,62.8,55.1,30.00,WSW,245,0.0,9.0,76,0.00,,,0.01,519,Wunderground v.1.15,2013-07-28 19:14:00,
2013-07-28 14:19:00,63.6,54.4,30.00,NW,308,4.0,14.0,72,0.00,,,0.01,478,Wunderground v.1.15,2013-07-28 19:19:00,
2013-07-28 14:24:00,63.7,54.1,30.00,WSW,240,10.0,12.0,71,0.00,,,0.01,490,Wunderground v.1.15,2013-07-28 19:24:00,
2013-07-28 14:29:00,63.5,53.9,30.00,SSW,213,6.0,12.0,71,0.00,,,0.01,443,Wunderground v.1.15,2013-07-28 19:29:00,
2013-07-28 14:34:00,63.4,53.8,30.00,SW,229,14.0,15.0,71,0.00,,,0.01,348,Wunderground v.1.15,2013-07-28 19:34:00,
2013-07-28 14:40:00,62.9,53.7,30.00,SW,234,6.0,9.0,72,0.00,,,0.01,353,Wunderground v.1.15,2013-07-28 19:40:00,
2013-07-28 14:45:00,62.6,53.8,30.00,SW,234,13.0,15.0,73,0.00,,,0.01,427,Wunderground v.1.15,2013-07-28 19:45:00,
2013-07-28 14:50:00,62.9,54.1,30.00,SSW,195,10.0,10.0,73,0.00,,,0.01,577,Wunderground v.1.15,2013-07-28 19:50:00,
2013-07-28 14:55:00,63.4,55.0,30.00,SW,219,9.0,16.0,74,0.00,,,0.01,694,Wunderground v.1.15,2013-07-28 19:55:00,
2013-07-28 15:00:00,63.9,54.3,30.00,SW,215,9.0,15.0,71,0.00,,,0.01,499,Wunderground v.1.15,2013-07-28 20:00:00,
2013-07-28 15:05:00,63.7,53.7,30.00,WSW,246,6.0,16.0,70,0.00,,,0.01,538,Wunderground v.1.15,2013-07-28 20:05:00,
2013-07-28 15:11:00,63.7,54.1,30.00,WSW,242,17.0,17.0,71,0.00,,,0.01,559,Wunderground v.1.15,2013-07-28 20:11:00,
2013-07-28 15:16:00,63.6,54.0,30.00,SW,236,16.0,20.0,71,0.00,,,0.01,390,Wunderground v.1.15,2013-07-28 20:16:00,
2013-07-28 15:21:00,63.2,54.4,30.00,WSW,248,15.0,19.0,73,0.00,,,0.01,422,Wunderground v.1.15,2013-07-28 20:21:00,
2013-07-28 15:26:00,63.3,54.9,30.00,SW,216,10.0,19.0,74,0.00,,,0.01,489,Wunderground v.1.15,2013-07-28 20:26:00,
2013-07-28 15:32:00,64.0,55.2,30.00,SW,224,7.0,12.0,73,0.00,,,0.01,315,Wunderground v.1.15,2013-07-28 20:32:00,
2013-07-28 15:37:00,64.1,55.3,30.00,WSW,246,8.0,12.0,73,0.00,,,0.01,279,Wunderground v.1.15,2013-07-28 20:37:00,
2013-07-28 15:42:00,63.9,54.7,30.00,SW,235,12.0,21.0,72,0.00,,,0.01,385,Wunderground v.1.15,2013-07-28 20:42:00,
2013-07-28 15:47:00,63.9,55.8,30.00,SW,223,11.0,21.0,75,0.00,,,0.01,446,Wunderground v.1.15,2013-07-28 20:47:00,
2013-07-28 15:52:00,64.4,55.9,30.00,SSW,209,7.0,14.0,74,0.00,,,0.01,960,Wunderground v.1.15,2013-07-28 20:52:00,
2013-07-28 15:57:00,64.4,54.8,30.00,SSW,213,11.0,18.0,71,0.00,,,0.01,814,Wunderground v.1.15,2013-07-28 20:57:00,
2013-07-28 16:02:00,64.9,55.7,30.00,SW,233,15.0,17.0,72,0.00,,,0.01,782,Wunderground v.1.15,2013-07-28 21:02:00,
2013-07-28 16:07:00,65.4,56.5,30.00,WSW,238,8.0,17.0,73,0.00,,,0.01,837,Wunderground v.1.15,2013-07-28 21:07:00,
2013-07-28 16:12:00,65.6,56.3,30.00,WSW,243,1.0,9.0,72,0.00,,,0.01,886,Wunderground v.1.15,2013-07-28 21:12:00,
2013-07-28 16:17:00,65.9,55.8,30.00,SW,219,9.0,17.0,70,0.00,,,0.01,227,Wunderground v.1.15,2013-07-28 21:17:00,
2013-07-28 16:22:00,65.4,55.4,30.00,WSW,246,2.0,19.0,70,0.00,,,0.01,631,Wunderground v.1.15,2013-07-28 21:22:00,
2013-07-28 16:27:00,65.6,55.5,30.00,SW,234,7.0,19.0,70,0.00,,,0.01,854,Wunderground v.1.15,2013-07-28 21:27:00,
2013-07-28 16:32:00,66.1,55.6,30.00,SW,217,13.0,14.0,69,0.00,,,0.01,418,Wunderground v.1.15,2013-07-28 21:32:00,
2013-07-28 16:37:00,66.4,55.1,30.00,SSW,203,11.0,17.0,67,0.00,,,0.01,884,Wunderground v.1.15,2013-07-28 21:37:00,
2013-07-28 16:42:00,66.7,56.6,30.00,WNW,290,5.0,15.0,70,0.00,,,0.01,752,Wunderground v.1.15,2013-07-28 21:42:00,
2013-07-28 16:47:00,66.7,55.4,30.00,SW,223,12.0,18.0,67,0.00,,,0.01,417,Wunderground v.1.15,2013-07-28 21:47:00,
2013-07-28 16:52:00,67.1,55.4,30.00,SW,235,10.0,18.0,66,0.00,,,0.01,664,Wunderground v.1.15,2013-07-28 21:52:00,
2013-07-28 16:57:00,67.0,55.7,29.99,WNW,284,8.0,20.0,67,0.00,,,0.01,461,Wunderground v.1.15,2013-07-28 21:57:00,
2013-07-28 17:02:00,67.0,55.3,30.00,WSW,248,5.0,16.0,66,0.00,,,0.01,320,Wunderground v.1.15,2013-07-28 22:02:00,
2013-07-28 17:07:00,66.5,55.2,30.00,West,266,10.0,17.0,67,0.00,,,0.01,241,Wunderground v.1.15,2013-07-28 22:07:00,
2013-07-28 17:12:00,66.1,54.8,30.00,WSW,243,2.0,11.0,67,0.00,,,0.01,241,Wunderground v.1.15,2013-07-28 22:12:00,
2013-07-28 17:17:00,65.9,55.0,30.00,SW,236,7.0,11.0,68,0.00,,,0.01,192,Wunderground v.1.15,2013-07-28 22:17:00,
2013-07-28 17:22:00,65.7,54.4,30.00,SW,227,4.0,10.0,67,0.00,,,0.01,202,Wunderground v.1.15,2013-07-28 22:22:00,
2013-07-28 17:27:00,65.4,54.2,30.00,WSW,244,11.0,15.0,67,0.00,,,0.01,193,Wunderground v.1.15,2013-07-28 22:27:00,
2013-07-28 17:32:00,65.2,54.4,30.00,SW,222,8.0,14.0,68,0.00,,,0.01,174,Wunderground v.1.15,2013-07-28 22:32:00,
2013-07-28 17:37:00,65.0,53.8,30.01,SW,236,11.0,18.0,67,0.00,,,0.01,188,Wunderground v.1.15,2013-07-28 22:37:00,
2013-07-28 17:42:00,65.0,54.2,30.01,WSW,246,6.0,13.0,68,0.00,,,0.01,213,Wunderground v.1.15,2013-07-28 22:42:00,
2013-07-28 17:47:00,65.0,54.2,30.01,SW,235,6.0,16.0,68,0.00,,,0.01,195,Wunderground v.1.15,2013-07-28 22:47:00,
2013-07-28 17:52:00,65.0,54.2,30.01,WSW,252,5.0,14.0,68,0.00,,,0.01,163,Wunderground v.1.15,2013-07-28 22:52:00,
2013-07-28 17:57:00,64.9,54.1,30.01,West,269,10.0,19.0,68,0.00,,,0.01,160,Wunderground v.1.15,2013-07-28 22:57:00,
2013-07-28 18:03:00,64.8,54.0,30.01,SW,230,8.0,14.0,68,0.00,,,0.01,156,Wunderground v.1.15,2013-07-28 23:03:00,
2013-07-28 18:08:00,64.7,54.3,30.01,SW,221,7.0,14.0,69,0.00,,,0.01,146,Wunderground v.1.15,2013-07-28 23:08:00,
2013-07-28 18:13:00,64.7,53.9,30.01,WSW,257,7.0,13.0,68,0.00,,,0.01,127,Wunderground v.1.15,2013-07-28 23:13:00,
2013-07-28 18:18:00,64.7,54.3,30.01,WSW,240,7.0,13.0,69,0.00,,,0.01,88,Wunderground v.1.15,2013-07-28 23:18:00,
2013-07-28 18:23:00,64.6,54.2,30.01,SW,217,6.0,17.0,69,0.00,,,0.01,72,Wunderground v.1.15,2013-07-28 23:23:00,
2013-07-28 18:28:00,64.4,54.0,30.01,SW,234,3.0,17.0,69,0.00,,,0.01,53,Wunderground v.1.15,2013-07-28 23:28:00,
2013-07-28 18:33:00,64.3,54.3,30.02,SW,231,6.0,10.0,70,0.00,,,0.01,47,Wunderground v.1.15,2013-07-28 23:33:00,
2013-07-28 18:38:00,64.2,55.0,30.02,West,260,4.0,10.0,72,0.00,,,0.01,37,Wunderground v.1.15,2013-07-28 23:38:00,
2013-07-28 18:43:00,64.1,54.9,30.02,WNW,297,6.0,12.0,72,0.00,,,0.01,39,Wunderground v.1.15,2013-07-28 23:43:00,
2013-07-28 18:48:00,64.0,54.8,30.02,WSW,253,1.0,12.0,72,0.00,,,0.01,40,Wunderground v.1.15,2013-07-28 23:48:00,
2013-07-28 18:53:00,64.0,54.8,30.02,West,259,2.0,8.0,72,0.00,,,0.01,35,Wunderground v.1.15,2013-07-28 23:53:00,
2013-07-28 18:58:00,63.9,54.7,30.02,WNW,289,0.0,9.0,72,0.00,,,0.01,37,Wunderground v.1.15,2013-07-28 23:58:00,
2013-07-28 19:03:00,63.9,54.7,30.03,WNW,302,2.0,8.0,72,0.00,,,0.01,23,Wunderground v.1.15,2013-07-29 00:03:00,
2013-07-28 19:08:00,63.8,54.6,30.03,WNW,282,2.0,13.0,72,0.00,,,0.01,23,Wunderground v.1.15,2013-07-29 00:08:00,
2013-07-28 19:13:00,63.8,54.2,30.03,West,279,7.0,12.0,71,0.00,,,0.01,32,Wunderground v.1.15,2013-07-29 00:13:00,
2013-07-28 19:18:00,63.7,53.7,30.03,NW,309,12.0,14.0,70,0.00,,,0.01,19,Wunderground v.1.15,2013-07-29 00:18:00,
2013-07-28 19:23:00,63.6,53.6,30.03,WNW,289,8.0,11.0,70,0.00,,,0.01,12,Wunderground v.1.15,2013-07-29 00:23:00,
2013-07-28 19:28:00,63.5,53.5,30.03,WNW,296,2.0,11.0,70,0.00,,,0.01,11,Wunderground v.1.15,2013-07-29 00:28:00,
2013-07-28 19:33:00,63.4,53.8,30.04,WNW,299,4.0,12.0,71,0.00,,,0.01,9,Wunderground v.1.15,2013-07-29 00:33:00,
2013-07-28 19:38:00,63.2,53.6,30.04,West,277,4.0,12.0,71,0.00,,,0.01,9,Wunderground v.1.15,2013-07-29 00:38:00,
2013-07-28 19:43:00,63.0,53.8,30.04,NW,310,2.0,11.0,72,0.00,,,0.01,7,Wunderground v.1.15,2013-07-29 00:43:00,
2013-07-28 19:48:00,62.9,53.7,30.04,WNW,303,7.0,13.0,72,0.00,,,0.01,5,Wunderground v.1.15,2013-07-29 00:48:00,
2013-07-28 19:53:00,62.8,54.0,30.04,WNW,303,8.0,12.0,73,0.00,,,0.01,5,Wunderground v.1.15,2013-07-29 00:53:00,
2013-07-28 19:58:00,62.7,53.9,30.04,NW,311,1.0,12.0,73,0.00,,,0.01,5,Wunderground v.1.15,2013-07-29 00:58:00,
2013-07-28 20:03:00,62.5,54.1,30.05,WSW,255,2.0,7.0,74,0.00,,,0.01,7,Wunderground v.1.15,2013-07-29 01:03:00,
2013-07-28 20:08:00,62.4,54.0,30.04,North,355,0.0,8.0,74,0.00,,,0.01,5,Wunderground v.1.15,2013-07-29 01:08:00,
2013-07-28 20:13:00,62.3,54.3,30.05,WNW,299,5.0,6.0,75,0.00,,,0.01,0,Wunderground v.1.15,2013-07-29 01:13:00,
2013-07-28 20:18:00,62.2,54.2,30.05,WNW,295,9.0,11.0,75,0.00,,,0.01,0,Wunderground v.1.15,2013-07-29 01:18:00,
2013-07-28 20:23:00,62.1,54.1,30.05,WNW,293,0.0,7.0,75,0.00,,,0.01,0,Wunderground v.1.15,2013-07-29 01:23:00,
2013-07-28 20:29:00,62.0,54.3,30.04,WNW,289,0.0,9.0,76,0.00,,,0.01,0,Wunderground v.1.15,2013-07-29 01:29:00,
2013-07-28 20:34:00,62.0,54.3,30.05,WNW,296,5.0,8.0,76,0.00,,,0.01,0,Wunderground v.1.15,2013-07-29 01:34:00,
2013-07-28 20:39:00,61.9,54.2,30.05,WNW,302,1.0,8.0,76,0.00,,,0.01,0,Wunderground v.1.15,2013-07-29 01:39:00,
2013-07-28 20:44:00,61.9,54.2,30.05,West,277,4.0,8.0,76,0.00,,,0.01,0,Wunderground v.1.15,2013-07-29 01:44:00,
2013-07-28 20:49:00,61.8,54.5,30.06,WNW,296,2.0,8.0,77,0.00,,,0.01,0,Wunderground v.1.15,2013-07-29 01:49:00,
2013-07-28 20:54:00,61.8,54.5,30.06,NW,313,7.0,7.0,77,0.00,,,0.01,0,Wunderground v.1.15,2013-07-29 01:54:00,
2013-07-28 20:59:00,61.7,54.4,30.06,NW,307,0.0,8.0,77,0.00,,,0.01,0,Wunderground v.1.15,2013-07-29 01:59:00,
2013-07-28 21:04:00,61.6,54.3,30.06,NW,313,1.0,8.0,77,0.00,,,0.01,0,Wunderground v.1.15,2013-07-29 02:04:00,
2013-07-28 21:09:00,61.5,54.2,30.06,WNW,302,5.0,8.0,77,0.00,,,0.01,0,Wunderground v.1.15,2013-07-29 02:09:00,
2013-07-28 21:14:00,61.4,54.1,30.06,West,281,0.0,7.0,77,0.00,,,0.01,0,Wunderground v.1.15,2013-07-29 02:14:00,
2013-07-28 21:19:00,61.4,54.1,30.07,WNW,298,6.0,8.0,77,0.00,,,0.01,0,Wunderground v.1.15,2013-07-29 02:19:00,
2013-07-28 21:24:00,61.3,54.0,30.07,WNW,290,5.0,8.0,77,0.00,,,0.01,0,Wunderground v.1.15,2013-07-29 02:24:00,
2013-07-28 21:29:00,61.3,54.0,30.07,WNW,291,0.0,8.0,77,0.00,,,0.01,0,Wunderground v.1.15,2013-07-29 02:29:00,
2013-07-28 21:34:00,61.3,54.0,30.07,WNW,298,0.0,6.0,77,0.00,,,0.01,0,Wunderground v.1.15,2013-07-29 02:34:00,
2013-07-28 21:39:00,61.2,53.9,30.07,WNW,299,2.0,7.0,77,0.00,,,0.01,0,Wunderground v.1.15,2013-07-29 02:39:00,
2013-07-28 21:45:00,61.2,53.9,30.07,NW,311,4.0,6.0,77,0.00,,,0.01,0,Wunderground v.1.15,2013-07-29 02:45:00,
2013-07-28 21:50:00,61.1,53.8,30.08,NW,310,0.0,1.0,77,0.00,,,0.01,0,Wunderground v.1.15,2013-07-29 02:50:00,
2013-07-28 21:55:00,61.1,53.8,30.07,WNW,288,0.0,6.0,77,0.00,,,0.01,0,Wunderground v.1.15,2013-07-29 02:55:00,
2013-07-28 22:00:00,61.0,53.7,30.08,WNW,294,8.0,8.0,77,0.00,,,0.01,0,Wunderground v.1.15,2013-07-29 03:00:00,
2013-07-28 22:05:00,61.0,53.7,30.08,NW,306,5.0,13.0,77,0.00,,,0.01,0,Wunderground v.1.15,2013-07-29 03:05:00,
2013-07-28 22:10:00,61.1,53.5,30.08,NW,309,0.0,6.0,76,0.00,,,0.01,0,Wunderground v.1.15,2013-07-29 03:10:00,
2013-07-28 22:15:00,61.2,53.6,30.08,WNW,299,5.0,17.0,76,0.00,,,0.01,0,Wunderground v.1.15,2013-07-29 03:15:00,
2013-07-28 22:20:00,61.2,53.9,30.08,WNW,302,9.0,9.0,77,0.00,,,0.01,0,Wunderground v.1.15,2013-07-29 03:20:00,
2013-07-28 22:25:00,61.2,53.9,30.08,WNW,294,4.0,13.0,77,0.00,,,0.01,0,Wunderground v.1.15,2013-07-29 03:25:00,
2013-07-28 22:30:00,61.1,53.8,30.08,NW,307,8.0,13.0,77,0.00,,,0.01,0,Wunderground v.1.15,2013-07-29 03:30:00,
2013-07-28 22:35:00,61.0,53.7,30.08,WNW,301,5.0,13.0,77,0.00,,,0.01,0,Wunderground v.1.15,2013-07-29 03:35:00,
2013-07-28 22:40:00,61.0,53.7,30.08,NW,313,4.0,6.0,77,0.00,,,0.01,0,Wunderground v.1.15,2013-07-29 03:40:00,
2013-07-28 22:45:00,60.9,53.6,30.08,WNW,288,7.0,15.0,77,0.00,,,0.01,0,Wunderground v.1.15,2013-07-29 03:45:00,
2013-07-28 22:50:00,60.8,53.5,30.08,NW,317,6.0,10.0,77,0.00,,,0.01,0,Wunderground v.1.15,2013-07-29 03:50:00,
2013-07-28 22:55:00,60.7,53.4,30.08,NW,326,9.0,13.0,77,0.00,,,0.01,0,Wunderground v.1.15,2013-07-29 03:55:00,
2013-07-28 23:01:00,60.7,53.4,30.08,WNW,285,5.0,12.0,77,0.00,,,0.01,0,Wunderground v.1.15,2013-07-29 04:01:00,
2013-07-28 23:06:00,60.6,53.3,30.08,WNW,283,2.0,12.0,77,0.00,,,0.01,0,Wunderground v.1.15,2013-07-29 04:06:00,
2013-07-28 23:11:00,60.5,53.3,30.08,WNW,296,9.0,11.0,77,0.00,,,0.01,0,Wunderground v.1.15,2013-07-29 04:11:00,
2013-07-28 23:16:00,60.5,53.3,30.08,WNW,296,4.0,15.0,77,0.00,,,0.01,0,Wunderground v.1.15,2013-07-29 04:16:00,
2013-07-28 23:21:00,60.4,53.5,30.08,WNW,294,0.0,5.0,78,0.00,,,0.01,0,Wunderground v.1.15,2013-07-29 04:21:00,
2013-07-28 23:26:00,60.4,53.5,30.09,West,278,1.0,7.0,78,0.00,,,0.01,0,Wunderground v.1.15,2013-07-29 04:26:00,
2013-07-28 23:31:00,60.3,53.8,30.09,West,269,0.0,2.0,79,0.00,,,0.01,0,Wunderground v.1.15,2013-07-29 04:31:00,
2013-07-28 23:36:00,60.2,53.7,30.09,WNW,298,0.0,7.0,79,0.00,,,0.01,0,Wunderground v.1.15,2013-07-29 04:36:00,
2013-07-28 23:41:00,60.1,53.6,30.09,WNW,286,4.0,9.0,79,0.00,,,0.01,0,Wunderground v.1.15,2013-07-29 04:41:00,
2013-07-28 23:46:00,60.0,53.5,30.09,WNW,286,0.0,9.0,79,0.00,,,0.01,0,Wunderground v.1.15,2013-07-29 04:46:00,
2013-07-28 23:51:00,59.9,53.7,30.09,WNW,297,0.0,6.0,80,0.00,,,0.01,0,Wunderground v.1.15,2013-07-29 04:51:00,
2013-07-28 23:56:00,59.8,53.6,30.09,WNW,282,0.0,7.0,80,0.00,,,0.01,0,Wunderground v.1.15,2013-07-29 04:56:00,